When you browse on this site, cookies collect data to enhance your experience and personalize the content and advertising you see.
Visit our Privacy Policy to learn more. By continuing to use the site, you agree to this use of cookies and data.

Stündliche Wetter Lyubachin

Heute, 10 Juli, Freitag

Zeit Temperatur Niederschläge Wind Luftdruck Luftfeuchtigkeit
00:00 +13°C° 0 mm 2 m/S 751 mmHg 83%
01:00 +13°C° 0 mm 2 m/S 751 mmHg 86%
02:00 +13°C° 0 mm 2 m/S 751 mmHg 90%
03:00 +13°C° 0 mm 2 m/S 751 mmHg 91%
04:00 +13°C° 0 mm 2 m/S 751 mmHg 91%
05:00 +12°C° 0 mm 3 m/S 750 mmHg 92%
06:00 +14°C° 0 mm 3 m/S 750 mmHg 90%
07:00 +15°C° 0 mm 4 m/S 750 mmHg 87%
08:00 +18°C° 0 mm 4 m/S 750 mmHg 85%
09:00 +19°C° 0 mm 5 m/S 750 mmHg 81%
10:00 +21°C° 0 mm 5 m/S 750 mmHg 76%
11:00 +23°C° 0 mm 5 m/S 750 mmHg 72%
12:00 +25°C° 0.5 mm 5 m/S 750 mmHg 72%
13:00 +25°C° 0.5 mm 5 m/S 749 mmHg 72%
14:00 +26°C° 0.5 mm 5 m/S 749 mmHg 72%
15:00 +26°C° 0.3 mm 5 m/S 749 mmHg 73%
16:00 +26°C° 0.3 mm 5 m/S 749 mmHg 74%
17:00 +26°C° 0.3 mm 4 m/S 749 mmHg 75%
18:00 +25°C° 0.3 mm 4 m/S 749 mmHg 80%
19:00 +23°C° 0.3 mm 4 m/S 749 mmHg 84%
20:00 +22°C° 0.3 mm 3 m/S 749 mmHg 89%
21:00 +21°C° 0.2 mm 4 m/S 749 mmHg 90%
22:00 +21°C° 0.2 mm 4 m/S 749 mmHg 92%
23:00 +20°C° 0.2 mm 4 m/S 748 mmHg 94%

Morgen, 11 Juli, Samstag

Zeit Temperatur Niederschläge Wind Luftdruck Luftfeuchtigkeit
00:00 +20°C° 0.1 mm 4 m/S 749 mmHg 93%
01:00 +20°C° 0.1 mm 5 m/S 749 mmHg 93%
02:00 +20°C° 0.1 mm 5 m/S 749 mmHg 93%
03:00 +20°C° 0 mm 5 m/S 749 mmHg 93%
04:00 +19°C° 0 mm 4 m/S 749 mmHg 93%
05:00 +19°C° 0 mm 4 m/S 749 mmHg 93%
06:00 +20°C° 0 mm 4 m/S 749 mmHg 90%
07:00 +21°C° 0 mm 3 m/S 749 mmHg 87%
08:00 +24°C° 0 mm 3 m/S 750 mmHg 83%
09:00 +25°C° 0 mm 3 m/S 750 mmHg 78%
10:00 +26°C° 0 mm 2 m/S 750 mmHg 73%
11:00 +27°C° 0 mm 2 m/S 750 mmHg 68%
12:00 +27°C° 0.7 mm 3 m/S 750 mmHg 71%
13:00 +27°C° 0.7 mm 3 m/S 750 mmHg 74%
14:00 +26°C° 0.7 mm 3 m/S 750 mmHg 76%
15:00 +26°C° 0.3 mm 4 m/S 750 mmHg 76%
16:00 +25°C° 0.3 mm 4 m/S 750 mmHg 76%
17:00 +25°C° 0.3 mm 4 m/S 750 mmHg 77%
18:00 +22°C° 0.4 mm 4 m/S 750 mmHg 80%
19:00 +20°C° 0.4 mm 3 m/S 750 mmHg 84%
20:00 +18°C° 0.4 mm 3 m/S 751 mmHg 88%
21:00 +17°C° 0.7 mm 3 m/S 751 mmHg 89%
22:00 +17°C° 0.7 mm 4 m/S 751 mmHg 90%
23:00 +15°C° 0.7 mm 4 m/S 752 mmHg 91%

übermorgen, 12 Juli, Sonntag

Zeit Temperatur Niederschläge Wind Luftdruck Luftfeuchtigkeit
00:00 +14°C° 0.6 mm 4 m/S 751 mmHg 92%
01:00 +14°C° 0.6 mm 4 m/S 751 mmHg 92%
02:00 +13°C° 0.6 mm 4 m/S 751 mmHg 92%
03:00 +13°C° 0.6 mm 4 m/S 751 mmHg 93%
04:00 +12°C° 0.6 mm 4 m/S 751 mmHg 93%
05:00 +12°C° 0.6 mm 4 m/S 751 mmHg 94%
06:00 +12°C° 0.4 mm 4 m/S 751 mmHg 94%
07:00 +12°C° 0.4 mm 4 m/S 752 mmHg 95%
08:00 +12°C° 0.4 mm 5 m/S 752 mmHg 95%
09:00 +12°C° 0.6 mm 5 m/S 752 mmHg 95%
10:00 +12°C° 0.6 mm 5 m/S 752 mmHg 95%
11:00 +12°C° 0.6 mm 5 m/S 752 mmHg 94%
12:00 +10°C° 0.8 mm 5 m/S 752 mmHg 94%
13:00 +10°C° 0.8 mm 5 m/S 752 mmHg 94%
14:00 +10°C° 0.8 mm 5 m/S 753 mmHg 93%
15:00 +10°C° 0.7 mm 5 m/S 753 mmHg 94%
16:00 +11°C° 0.7 mm 4 m/S 753 mmHg 94%
17:00 +11°C° 0.7 mm 4 m/S 753 mmHg 95%
18:00 +11°C° 0.2 mm 3 m/S 753 mmHg 94%
19:00 +11°C° 0.2 mm 3 m/S 753 mmHg 94%
20:00 +11°C° 0.2 mm 3 m/S 753 mmHg 94%
21:00 +10°C° 0 mm 2 m/S 753 mmHg 95%
22:00 +10°C° 0 mm 2 m/S 752 mmHg 95%
23:00 +9°C° 0 mm 2 m/S 752 mmHg 96%

13 Juli, Montag

Zeit Temperatur Niederschläge Wind Luftdruck Luftfeuchtigkeit
00:00 +9°C° 0 mm 2 m/S 752 mmHg 96%
01:00 +9°C° 0 mm 2 m/S 752 mmHg 96%
02:00 +9°C° 0 mm 2 m/S 752 mmHg 96%
03:00 +9°C° 0 mm 3 m/S 752 mmHg 96%
04:00 +9°C° 0 mm 3 m/S 752 mmHg 96%
05:00 +9°C° 0 mm 3 m/S 752 mmHg 96%
06:00 +10°C° 0 mm 4 m/S 751 mmHg 91%
07:00 +12°C° 0 mm 4 m/S 751 mmHg 86%
08:00 +13°C° 0 mm 5 m/S 751 mmHg 81%
09:00 +15°C° 0 mm 5 m/S 751 mmHg 75%
10:00 +16°C° 0 mm 5 m/S 751 mmHg 69%
11:00 +17°C° 0 mm 5 m/S 751 mmHg 62%
12:00 +17°C° 0.1 mm 5 m/S 751 mmHg 62%
13:00 +19°C° 0.1 mm 5 m/S 751 mmHg 62%
14:00 +19°C° 0.1 mm 5 m/S 750 mmHg 61%
15:00 +19°C° 0.1 mm 4 m/S 750 mmHg 62%
16:00 +19°C° 0.1 mm 4 m/S 750 mmHg 63%
17:00 +19°C° 0.1 mm 4 m/S 749 mmHg 64%
18:00 +18°C° 0 mm 4 m/S 749 mmHg 70%
19:00 +16°C° 0 mm 3 m/S 749 mmHg 75%
20:00 +15°C° 0 mm 2 m/S 749 mmHg 81%
21:00 +14°C° 0 mm 2 m/S 749 mmHg 84%
22:00 +13°C° 0 mm 2 m/S 749 mmHg 88%
23:00 +12°C° 0 mm 2 m/S 749 mmHg 91%

14 Juli, Dienstag

Zeit Temperatur Niederschläge Wind Luftdruck Luftfeuchtigkeit
00:00 +12°C° 0 mm 2 m/S 749 mmHg 92%
01:00 +12°C° 0 mm 2 m/S 749 mmHg 93%
02:00 +10°C° 0 mm 2 m/S 749 mmHg 94%
03:00 +10°C° 0 mm 2 m/S 749 mmHg 94%
04:00 +10°C° 0 mm 2 m/S 749 mmHg 95%
05:00 +10°C° 0 mm 2 m/S 749 mmHg 95%
06:00 +12°C° 0 mm 3 m/S 749 mmHg 89%
07:00 +14°C° 0 mm 3 m/S 749 mmHg 84%
08:00 +17°C° 0 mm 3 m/S 749 mmHg 78%
09:00 +18°C° 0 mm 3 m/S 749 mmHg 72%
10:00 +19°C° 0 mm 3 m/S 749 mmHg 67%
11:00 +21°C° 0 mm 4 m/S 749 mmHg 61%
12:00 +21°C° 0.1 mm 4 m/S 749 mmHg 59%
13:00 +21°C° 0.1 mm 4 m/S 749 mmHg 58%
14:00 +22°C° 0.1 mm 4 m/S 749 mmHg 56%
15:00 +22°C° 0 mm 4 m/S 749 mmHg 58%
16:00 +21°C° 0 mm 4 m/S 749 mmHg 60%
17:00 +21°C° 0 mm 4 m/S 749 mmHg 62%
18:00 +19°C° 0 mm 3 m/S 749 mmHg 68%
19:00 +18°C° 0 mm 3 m/S 749 mmHg 74%
20:00 +16°C° 0 mm 2 m/S 749 mmHg 80%
21:00 +15°C° 0 mm 2 m/S 750 mmHg 82%
22:00 +14°C° 0 mm 2 m/S 750 mmHg 85%
23:00 +13°C° 0 mm 2 m/S 750 mmHg 88%

15 Juli, Mittwoch

Zeit Temperatur Niederschläge Wind Luftdruck Luftfeuchtigkeit
00:00 +13°C° 0 mm 2 m/S 750 mmHg 89%
01:00 +12°C° 0 mm 2 m/S 751 mmHg 90%
02:00 +12°C° 0 mm 2 m/S 751 mmHg 91%
03:00 +12°C° 0 mm 2 m/S 751 mmHg 91%
04:00 +10°C° 0 mm 2 m/S 751 mmHg 90%
05:00 +10°C° 0 mm 2 m/S 751 mmHg 90%
06:00 +13°C° 0 mm 2 m/S 751 mmHg 84%
07:00 +15°C° 0 mm 1 m/S 751 mmHg 78%
08:00 +18°C° 0 mm 1 m/S 751 mmHg 71%
09:00 +20°C° 0 mm 1 m/S 751 mmHg 66%
10:00 +21°C° 0 mm 1 m/S 751 mmHg 61%
11:00 +22°C° 0 mm 1 m/S 751 mmHg 56%
12:00 +23°C° 0 mm 1 m/S 751 mmHg 55%
13:00 +23°C° 0 mm 1 m/S 751 mmHg 54%
14:00 +24°C° 0 mm 1 m/S 751 mmHg 54%
15:00 +23°C° 0.1 mm 1 m/S 751 mmHg 56%
16:00 +23°C° 0.1 mm 1 m/S 751 mmHg 59%
17:00 +23°C° 0.1 mm 1 m/S 751 mmHg 62%
18:00 +21°C° 0.1 mm 1 m/S 751 mmHg 66%
19:00 +18°C° 0.1 mm 0 m/S 751 mmHg 71%
20:00 +16°C° 0.1 mm 0 m/S 751 mmHg 75%
21:00 +16°C° 0 mm 0 m/S 751 mmHg 77%
22:00 +15°C° 0 mm 0 m/S 751 mmHg 79%
23:00 +15°C° 0 mm 1 m/S 751 mmHg 80%
Mehr zeigen